sat.trackr.live / text

‹ back to catalog

STARLINK-32578

NORAD 61979 · 2024-210W

PAYLOAD ACTIVE UNKNOWN

§ Identity

Operator
Country
US
Launch date
2024-11-14
Launch site
AFETR
Launch vehicle
Mass (kg)
RCS (m²)

Purposes: comms

External: N2YO · Heavens-Above · Gunter

§ Orbital elements

Epoch: 2026-05-25T04:49:11.216064Z

Period
94.27 min
Inclination
43.0006°
Eccentricity
0.0000855
Mean motion
15.27599299 rev/d
Perigee alt
482.4 km
Apogee alt
483.6 km
Semi-major
6,861.1 km
B*
6.9995e-4
RAAN
107.5316°
Arg perigee
277.9599°
Mean anomaly
82.1156°
Rev number
8,662

§ Raw data

STARLINK-325781 61979U 24210W   26145.20082426  .00019060  00000+0  69995-3 0  99992 61979  43.0006 107.5316 0000855 277.9599  82.1156 15.27599299 86629

JSON: /api/v1/satellites/61979 · /tle

For live sub-satellite position, see the globe view (requires WebGL).

§ Visibility from observer

Set your observer location to see the next 7 days of passes ≥ 10°. The values pass through the URL so the page stays shareable.

No JS? Fill the form by hand. The geolocation button needs JavaScript.